OpenBCM V1.07b12 (Linux)

Packet Radio Mailbox

SR8BBS

[OBCM_Lublin]

 Login: GUEST





  
I0OJJ  > KEPS     01.11.25 05:10z 316 Lines 15004 Bytes #12 (0) @ AMSAT
BID : ORB25302.1
Read: GUEST
Subj: 2Line Orbital Elements 25302.AMSAT
Path: SR8BBS<SR6DWH<SR1BSZ<EA2RCF<I0OJJ
Sent: 251029/0021z @:I0OJJ.ITA.EU [Rome] obcm1.08-11-2-gbfe9
From: I0OJJ @ I0OJJ.ITA.EU (Gustavo)
To:   KEPS @ AMSAT
X-Info: This message was generated automatically


QST de W1STR

AMSAT Orbital Elements for Amateur Satellites in TLE Format
From Orbital Analysis Office
New England Sci-Tech STEM Education Center
Natick MA October 29, 2025
To all radio amateurs


These element sets describe the orbits of various satellites 
in use by the amateur radio community. For details see:
www.amsat.org/keplerian-elements-formats/

A daily update of element sets is available at:
www.amsat.org/tle/daily-bulletin.txt
or without bulletin text:
www.amsat.org/tle/dailytle.txt


AO-07
1 07530U 74089B   25301.50990970 -.00000027  00000-0  11973-3 0  9997
2 07530 101.9984 307.2976 0012034 212.4794 300.2689 12.53692886331489
UO-11
1 14781U 84021B   25301.46420664  .00002586  00000-0  27438-3 0  9997
2 14781  97.7744 265.2205 0006401 221.9690 138.1038 14.89911685222612
AO-27
1 22825U 93061C   25301.61564077  .00000182  00000-0  86511-4 0  9991
2 22825  98.7206   3.7625 0009351  63.8142 296.4001 14.30851848673884
FO-29
1 24278U 96046B   25301.59896800  .00000001  00000-0  38583-4 0  9996
2 24278  98.5508 176.7829 0349626 337.3096  21.2905 13.53258458441845
NOAA-15
1 25338U 98030A   25301.60555511  .00000201  00000-0  10003-3 0  9990
2 25338  98.5270 323.2945 0009330 310.3973  49.6393 14.27043186428265
GO-32
1 25397U 98043D   25301.39809183  .00000161  00000-0  89580-4 0  9994
2 25397  98.9881 283.5721 0001852 130.7401 229.3938 14.24357800418330
ISS
1 25544U 98067A   25301.52216109  .00016210  00000-0  29595-3 0  9990
2 25544  51.6346   6.3420 0004740 349.4592  10.6297 15.49553329535849
NO-44
1 26931U 01043C   25301.26301946  .00000263  00000-0  12943-3 0  9994
2 26931  67.0486 124.0799 0007136 272.5711  87.4574 14.31814760257248
SO-50
1 27607U 02058C   25301.53435512  .00001820  00000-0  23724-3 0  9998
2 27607  64.5503 125.2866 0069293 304.9420  54.5189 14.82138667230113
CO-55
1 27844U 03031E   25301.48496906  .00000527  00000-0  24805-3 0  9995
2 27844  98.6785 307.9687 0010385 133.9748 226.2289 14.24122004158692
CO-57
1 27848U 03031J   25301.49992172  .00000441  00000-0  21329-3 0  9999
2 27848  98.6813 307.8811 0010013 150.4339 209.7407 14.23438669158418
RS-22
1 27939U 03042A   25301.68218632  .00001923  00000-0  30904-3 0  9990
2 27939  98.3373 114.6906 0010298 284.6230 206.0749 14.72774060181463
CO-58
1 28895U 05043F   25301.36649774  .00002943  00000-0  48069-3 0  9999
2 28895  98.2695  87.6949 0013728 217.4799 142.5451 14.71617091 67648
CO-65
1 32785U 08021C   25301.60941306  .00009421  00000-0  64578-3 0  9995
2 32785  97.8037 274.0987 0011431  93.8121 266.4413 15.06208951950290
CO-66
1 32791U 08021J   25301.47280352  .00021205  00000-0  90034-3 0  9994
2 32791  97.7426 285.1434 0005856  62.7042 297.4789 15.23089393951904
RS-30
1 32953U 08025A   25301.64256146  .00000023  00000-0  95740-4 0  9996
2 32953  82.5002 139.4750 0019941  96.6327 263.7023 12.43169833790927
NOAA-19
1 33591U 09005A   25301.57289524  .00000073  00000-0  63053-4 0  9999
2 33591  98.9823   6.9664 0013140 329.0438  30.9958 14.13421816861764
SRMSAT
1 37841U 11058D   25301.57679681  .00000523  00000-0  14038-3 0  9997
2 37841  19.9732  21.2814 0011677 175.0392 311.7626 14.11488042725051
ZACUBE-1
1 39417U 13066B   25301.39182659  .00007485  00000-0  62208-3 0  9999
2 39417  97.7983 257.9135 0041421 303.3863  56.3399 14.98353264645981
Delfi-N3xt
1 39428U 13066N   25301.51872555  .00011474  00000-0  11036-2 0  9991
2 39428  97.8299 217.7314 0078645 255.6131 103.6348 14.90826476640057
GOMX-1
1 39430U 13066Q   25301.65648322  .00002581  00000-0  39919-3 0  9992
2 39430  97.6648 151.6013 0132413 100.4478 261.1681 14.68291505635927
LO-74
1 39440U 13066AA  25301.39094575  .00007035  00000-0  68700-3 0  9998
2 39440  97.8634 245.1645 0062485  75.4104 285.4033 14.91229764642419
AO-73
1 39444U 13066AE  25301.45656156  .00012473  00000-0  87185-3 0  9998
2 39444  97.7996 264.2321 0037878 271.0779  88.6107 15.04869316644758
DTUSAT-2
1 40030U 14033W   25301.18040716  .00011318  00000-0  68779-3 0  9990
2 40030  98.0720 280.1304 0007105 316.4464  43.6202 15.10637741617606
EO-80
1 40032U 14033Y   25301.39179965  .00010138  00000-0  61540-3 0  9992
2 40032  98.0606 279.8116 0006004 236.3720 123.6936 15.10715079617614
LILACSAT-2
1 40908U 15049K   25301.62284213  .00017908  00000-0  40930-3 0  9993
2 40908  97.4976 325.6652 0008996  26.0534 334.1164 15.42859469559943
IO-86
1 40931U 15052B   25151.18580175  .00001241  00000-0  78118-4 0  9996
2 40931   6.0006  24.0987 0012733 338.8432  21.1169 14.78805930523159
Horyu-4
1 41340U 16012D   25300.96794565  .00046340  00000-0  92827-3 0  9991
2 41340  30.9952 263.0017 0003426 120.4806 239.6180 15.45469097534457
Lapan A3
1 41603U 16040E   25301.67091241  .00005385  00000-0  18169-3 0  9995
2 41603  97.1434 300.8835 0012505 119.8210 240.4277 15.31028362519367
CAS-2T
1 41847U 16066G   25301.58561994  .00002185  00000-0  31480-3 0  9996
2 41847  98.4078  14.7675 0345501 111.6991 252.1357 14.43961704471363
TechnoSat
1 42829U 17042E   25301.52819201  .00006105  00000-0  45757-3 0  9991
2 42829  97.4050 103.7053 0018966 161.6905 198.5008 15.02886049451889
AO-91
1 43017U 17073E   25301.59447140  .00012384  00000-0  59676-3 0  9992
2 43017  97.4995 168.8514 0166174  45.5868 315.8824 15.07426152430432
S-Net D
1 43186U 18014G   25301.47907835  .00008442  00000-0  47418-3 0  9995
2 43186  97.5471 202.9605 0010696  97.2184 263.0263 15.13519839423673
S-Net B
1 43187U 18014H   25301.28808019  .00008070  00000-0  45371-3 0  9992
2 43187  97.5478 202.7498 0011396  94.0666 266.1868 15.13492473423643
S-Net A
1 43188U 18014J   25301.47896617  .00008495  00000-0  47694-3 0  9996
2 43188  97.5487 203.1086 0011309  93.9156 266.3368 15.13525344423672
S-Net C
1 43189U 18014K   25301.29088354  .00007790  00000-0  43800-3 0  9990
2 43189  97.5502 202.9601 0012816  88.5645 271.7054 15.13485413422198
Ten-Koh
1 43677U 18084G   25301.46489226  .00003862  00000-0  30445-3 0  9998
2 43677  98.0691 119.2944 0009369 154.9164 205.2516 15.01368551381377
PO-101
1 43678U 18084H   25301.66924560  .00004028  00000-0  33645-3 0  9996
2 43678  98.1104 123.3172 0007865 159.8817 200.2716 14.99118317381517
QO-100
1 43700U 18090A   25300.12149642  .00000156  00000-0  00000-0 0  9993
2 43700   0.0213 118.9319 0001997 135.6013 210.7612  1.00274319 25349
MinXSS-2
1 43758U 18099A   25301.19256206  .00027615  00000-0  90855-3 0  9997
2 43758  97.4854   8.0331 0010539  25.9768 334.2000 15.31432682378449
AO-95
1 43770U 18099N   25301.59995673  .00013996  00000-0  64448-3 0  9999
2 43770  97.4738 358.2524 0011393  83.6222 276.6310 15.20357695377959
SNUSat 2
1 43782U 18099AA  25301.09949260  .00011443  00000-0  57971-3 0  9996
2 43782  97.4418 353.3098 0012033  33.5857 326.6137 15.17078665377786
SnugLite
1 43784U 18099AC  25301.40080185  .00014199  00000-0  64793-3 0  9996
2 43784  97.4234 353.5047 0004025  47.6079 312.5497 15.20717242378019
ITASat 1
1 43786U 18099AE  25301.60371975  .00009493  00000-0  50925-3 0  9993
2 43786  97.4392 352.8719 0015328  80.5358 279.7606 15.15067203377797
EAGLET 1
1 43790U 18099AJ  25301.60045623  .00006119  00000-0  37491-3 0  9991
2 43790  97.4592 352.3027 0013223  68.8650 291.3992 15.10459538377347
ESEO
1 43792U 18099AL  25301.62069875  .00002256  00000-0  17076-3 0  9995
2 43792  97.4288 343.6379 0013356  46.6348 313.5988 15.03211040377000
JO-97
1 43803U 18099AX  25301.63079054  .00019048  00000-0  76840-3 0  9990
2 43803  97.4485 359.6451 0007044  23.1661 336.9893 15.24829550378239
Suomi 100
1 43804U 18099AY  25301.63446507  .00015192  00000-0  67264-3 0  9998
2 43804  97.4550 358.4848 0011795  23.2198 336.9568 15.21681322378121
ISAT
1 43879U 18111D   25301.50033745  .00040782  00000-0  11073-2 0  9996
2 43879  97.5876 219.5527 0010731  67.7792 292.4589 15.37420388375281
UWE-4
1 43880U 18111E   25301.26452865  .00028362  00000-0  93312-3 0  9996
2 43880  97.5818 216.6433 0013553  77.0812 283.1942 15.31392189375118
Sparrow
1 43881U 18111F   25301.34961521  .00043903  00000-0  11235-2 0  9991
2 43881  97.6052 222.8952 0009495  92.9489 267.2842 15.39243266375370
Prox-1
1 44339U 19036A   25301.46494869  .00018228  00000-0  21299-2 0  9999
2 44339  23.9957 214.2322 0007145 243.3611 116.6155 14.83497552338932
Taurus 1
1 44530U 19059C   25301.59958456  .00009018  00000-0  15783-2 0  9996
2 44530  98.6220  88.0103 0008720 315.6831  44.3673 14.68058592324610
Duchifat 3
1 44854U 19089C   25301.66556102  .00189550  00000-0  14708-2 0  9994
2 44854  36.9318 167.2160 0009766 312.3952  47.5985 15.70237566324989
TO-108
1 44881U 19093C   25301.65346337  .00001531  00000-0  18128-3 0  9998
2 44881  97.7804  14.2867 0014858 125.2400 235.0209 14.85945700317027
FloripaSat 1
1 44885U 19093G   25301.64040207  .00008777  00000-0  70258-3 0  9999
2 44885  97.8072  29.6429 0011514 110.2732 249.9730 15.00363612317882
RS-44
1 44909U 19096E   25301.51324046  .00000017  00000-0  29318-4 0  9992
2 44909  82.5183 133.6662 0216966 326.2906  32.4551 12.79744931272716
SALSAT
1 46495U 20068K   25301.47630359  .00011491  00000-0  45976-3 0  9992
2 46495  97.8763 286.3530 0012283  41.6837 318.5333 15.25191413279985
CSS (TIANHE-1)
1 48274U 21035A   25301.24730781  .00036535  00000-0  42648-3 0  9998
2 48274  41.4667 293.0437 0010782 297.7398  62.2347 15.60823296256926
TUBIN
1 48900U 21059X   25301.63367343  .00133236  00000-0  68418-3 0  9992
2 48900  97.6726 124.0589 0001609  62.5285 297.6146 15.80863957242143
CUTE
1 49263U 21088D   25301.45679793  .00047853  00000-0  71782-3 0  9999
2 49263  97.4382  22.4045 0006698  80.9021 279.2990 15.54757363226256
